[[{"header":{"parameterUnit":"m.s-1","parameterCategory":1,"la1":30.2991,"la2":30.254,"lo1":-89.0895,"lo2":-89.0444,"dy":0.0017,"dx":0.0017,"nx":28,"ny":28,"refTime":"2024-12-21T03:00:00:Z","depth":0,"parameterNumber":2,"parameterNumberName":"U-component_of_WINDS"},"data":[0,0,0,0,0,0,0,0,0,0,0,0,0,0,0,0,0,0,0,0,0,0,0,0,0,0,0,0,0,0,0,0,0,0,0,0,0,0,0,0,0,0,0,0,0,0,0,0,0,0,0,0,0,0,0,0,0,0,-1.7832,-1.7833,0,-1.7919,-1.792,-1.7921,-1.7866,-1.7863,-1.7861,-1.7858,-1.795,-1.7954,-1.7959,0,0,0,0,0,0,0,0,0,0,0,0,0,-1.7618,-1.7622,-1.7832,-1.7833,-1.7834,-1.7919,-1.792,-1.7921,-1.7866,-1.7863,-1.786,-1.7857,-1.7948,-1.7954,-1.796,0,0,0,0,0,0,0,0,0,0,0,0,0,-1.7709,-1.7624,-1.7831,-1.7817,-1.7816,-1.7918,-1.792,-1.7921,-1.7867,-1.7863,-1.7859,-1.7856,-1.7946,-1.7953,-1.796,-1.8083,0,0,-1.7983,-1.7986,0,0,0,0,0,0,0,0,-1.7704,-1.7717,-1.7818,-1.7818,-1.7817,-1.7877,-1.7878,-1.7976,-1.7868,-1.7848,-1.7858,-1.7854,-1.7929,-1.7937,-1.7962,-1.8087,-1.8091,-1.7983,-1.7988,-1.7991,-1.7993,0,0,0,0,0,0,0,-1.7697,-1.7712,-1.7866,-1.7819,-1.7819,-1.7806,-1.7814,-1.7896,-1.7909,-1.7849,-1.7845,-1.7856,-1.7928,-1.7955,-1.7964,-1.8092,-1.7983,-1.799,-1.7994,-1.7997,-1.8321,-1.8325,0,0,0,0,0,0,-1.7692,-1.7708,-1.7863,-1.7869,-1.775,-1.7813,-1.7822,-1.7862,-1.7908,-1.7911,-1.786,-1.7853,-1.7945,-1.7956,-1.7967,-1.8113,-1.7991,-1.7998,-1.8002,-1.8317,-1.8322,-1.8326,0,0,0,0,0,0,-1.7688,-1.7706,-1.786,-1.7787,-1.7806,-1.7821,-1.7866,-1.7866,-1.7893,-1.7916,-1.7918,-1.7885,-1.7942,-1.7957,-1.8054,-1.8116,-1.8001,-1.8007,-1.8312,-1.8318,-1.8324,-1.8407,0,0,0,0,0,0,-1.7682,-1.7705,-1.7752,-1.7789,-1.781,-1.7946,-1.7869,-1.787,-1.7906,-1.7898,-1.794,-1.7944,-1.794,-1.8044,-1.8061,-1.8124,-1.8013,-1.8306,-1.8315,-1.8322,-1.8399,-1.8415,-1.843,0,0,0,0,0,-1.7674,-1.7773,-1.7755,-1.7774,-1.7868,-1.7949,-1.7961,-1.7955,-1.7911,-1.7958,-1.7972,-1.7942,-1.8106,-1.8054,-1.8074,-1.8139,-1.8302,-1.8312,-1.8322,-1.8392,-1.8412,-1.8429,0,0,0,0,0,0,-1.7744,-1.7777,-1.7758,-1.7871,-1.7907,-1.794,-1.7999,-1.7977,-1.8028,-1.8019,-1.8009,-1.8019,-1.8121,-1.8139,-1.8081,-1.8259,-1.8197,-1.8211,-1.8244,-1.8263,-1.8278,-1.8273,-1.8019,0,0,0,0,0,-1.7772,-1.7835,-1.786,-1.7957,-1.7977,-1.7985,-1.802,-1.8012,-1.805,-1.8065,-1.8087,-1.8125,-1.8185,-1.8225,-1.8281,-1.84,-1.8409,-1.8455,-1.847,-1.8483,-1.8495,-1.8559,-1.858,-1.8358,-1.8358,-1.8358,0,0,-1.7832,-1.7857,-1.7898,-1.7972,-1.8,-1.8065,-1.7999,-1.8071,-1.8119,-1.8076,-1.817,-1.8186,-1.8229,-1.8337,-1.8386,-1.8356,-1.8558,-1.8495,-1.8505,-1.8511,-1.8571,-1.8592,-1.8611,-1.8364,-1.8363,-1.8362,0,0,-1.7974,-1.7999,-1.8083,-1.8111,-1.8153,-1.8158,-1.8178,-1.8213,-1.8223,-1.8316,-1.8285,-1.8342,-1.8445,-1.8477,-1.8506,-1.8657,-1.8632,-1.8676,-1.8757,-1.8819,-1.8837,-1.8852,-1.8907,-1.8926,-1.8688,-1.8688,-1.8688,0,-1.8043,-1.814,-1.8129,-1.8203,-1.8237,-1.8199,-1.8284,-1.8312,-1.8371,-1.8395,-1.8359,-1.8487,-1.8513,-1.8629,-1.8665,-1.869,-1.8713,-1.8672,-1.8835,-1.885,-1.8865,-1.8917,-1.8937,-1.8693,-1.8693,-1.8692,-1.8692,0,-1.8223,-1.829,-1.8352,-1.8409,-1.8449,-1.8528,-1.8529,-1.8571,-1.8559,-1.8567,-1.8661,-1.8691,-1.8752,-1.8778,-1.8767,-1.8892,-1.8872,-1.8836,-1.8774,-1.8891,-1.894,-1.896,-1.8701,-1.8699,-1.8697,-1.8696,0,0,-1.8414,-1.8461,-1.8485,-1.851,-1.8552,-1.8604,-1.8681,-1.874,-1.8776,-1.8817,-1.8882,-1.8969,-1.8935,-1.8969,-1.896,-1.9015,-1.9133,-1.8973,-1.8973,-1.9002,-1.9272,-1.93,-1.9323,-1.9116,-1.9119,-1.9122,-1.9269,0,-1.8559,-1.8693,-1.8684,-1.881,-1.8872,-1.8837,-1.8903,-1.8937,-1.8946,-1.9,-1.9009,-1.9072,-1.9023,-1.9042,-1.9095,-1.9108,-1.9188,-1.9097,-1.9176,-1.9179,-1.9168,-1.9349,-1.9378,-1.9516,-1.9288,-1.9291,-1.9293,0,-1.8747,-1.8793,-1.8925,-1.8957,-1.8983,-1.9044,-1.9096,-1.9148,-1.9185,-1.9187,-1.9223,-1.9206,-1.9283,-1.9217,-1.9323,-1.9262,-1.9293,-1.9304,-1.9309,-1.9318,-1.9245,-1.9363,-1.9559,-1.958,-1.9323,-1.9321,-1.9319,0,-1.8874,-1.8969,-1.906,-1.9083,-1.9122,-1.9165,-1.9184,-1.9217,-1.9252,-1.9298,-1.9321,-1.9375,-1.9406,-1.9448,-1.9445,-1.9397,-1.9553,-1.9487,-1.9558,-1.9558,-1.9594,-1.9592,-1.98,-1.9613,-1.9612,-1.9612,-1.9611,0,-1.9038,-1.912,-1.9118,-1.9174,-1.9265,-1.9254,-1.9344,-1.9358,-1.9387,-1.9445,-1.9417,-1.9472,-1.9465,-1.952,-1.9518,-1.9606,-1.962,-1.9625,-1.9623,-1.9628,-1.9628,-1.965,-1.9641,-1.9617,-1.9616,-1.9615,-1.9614,0,-1.9196,-1.9198,-1.9295,-1.9323,-1.9332,-1.9398,-1.9423,-1.9476,-1.9481,-1.9556,-1.9572,-1.9581,-1.9645,-1.9645,-1.9719,-1.9717,-1.9825,-1.9813,-1.9813,-1.9811,-1.9882,-1.9876,-2.0112,-2.0142,-1.9935,-1.9937,-1.9938,0,-1.9302,-1.9364,-1.9399,-1.9435,-1.9456,-1.9516,-1.9551,-1.9542,-1.958,-1.9626,-1.9673,-1.9734,-1.9782,-1.9885,-1.9899,-1.9954,-1.9943,-2.0022,-1.9951,-1.9954,-1.9945,-1.9942,-1.9948,-2.0036,-2.0039,-2.004,-2.0042,0,-1.9489,-1.9486,-1.9538,-1.959,-1.9633,-1.9675,-1.9712,-1.9744,-1.9739,-1.9783,-1.9847,-1.9884,-1.9958,-2.0018,-2.0071,-2.009,-2.0066,-2.0064,-2.0083,-2.0089,-2.0087,-2.009,-1.9852,-2.0059,-2.0057,-2.0056,-2.0055,-2.0054,-1.9624,-1.9678,-1.971,-1.9769,-1.9796,-1.9832,-1.9883,-1.9894,-1.9947,-2.0006,-1.9996,-2.0068,-2.0102,-2.017,-2.0193,-2.0249,-2.0222,-2.025,-2.0257,-2.0265,-2.0273,-2.0077,-2.0259,-2.0258,-2.0258,-2.0257,-2.0257,0,-1.981,-1.9829,-1.9883,-1.9936,-1.9982,-1.9953,-1.9993,-2.0034,-2.0097,-2.013,-2.0177,-2.025,-2.0308,-2.0325,-2.0381,-2.0422,-2.0413,-2.0438,-2.0435,-2.044,-2.0294,-2.0272,-2.0445,-2.0445,-2.0445,-2.0445,-2.0445,-2.0444,-1.9913,-2.0002,-2.0002,-2.0104,-2.0122,-2.0191,-2.0216,-2.0249,-2.0275,-2.0358,-2.0405,-2.0415,-2.0442,-2.0499,-2.0551,-2.0554,-2.0576,-2.0606,-2.0605,-2.0469,-2.045,-2.0432,-2.0412,-2.0611,-2.0611,-2.0747,-2.0748,-2.0749]},{"header":{"parameterUnit":"m.s-1","parameterCategory":1,"la1":30.2991,"la2":30.254,"lo1":-89.0895,"lo2":-89.0444,"dy":0.0017,"dx":0.0017,"nx":28,"ny":28,"refTime":"2024-12-21T03:00:00:Z","depth":0,"parameterNumber":3,"parameterNumberName":"V-component_of_WINDS"},"data":[0,0,0,0,0,0,0,0,0,0,0,0,0,0,0,0,0,0,0,0,0,0,0,0,0,0,0,0,0,0,0,0,0,0,0,0,0,0,0,0,0,0,0,0,0,0,0,0,0,0,0,0,0,0,0,0,0,0,-5.7247,-5.7248,0,-5.7362,-5.7363,-5.7365,-5.7284,-5.728,-5.7277,-5.7273,-5.7387,-5.7393,-5.7399,0,0,0,0,0,0,0,0,0,0,0,0,0,-5.695,-5.6956,-5.7246,-5.7248,-5.7249,-5.7362,-5.7363,-5.7365,-5.7285,-5.728,-5.7276,-5.7272,-5.7385,-5.7392,-5.74,0,0,0,0,0,0,0,0,0,0,0,0,0,-5.7073,-5.6958,-5.7246,-5.7223,-5.7222,-5.7362,-5.7363,-5.7365,-5.7286,-5.728,-5.7275,-5.727,-5.7382,-5.7392,-5.7401,-5.7568,0,0,-5.743,-5.7434,0,0,0,0,0,0,0,0,-5.7067,-5.7084,-5.7225,-5.7225,-5.7224,-5.7303,-5.73,-5.7433,-5.7287,-5.7261,-5.7273,-5.7267,-5.7363,-5.7374,-5.7407,-5.7574,-5.7578,-5.7431,-5.7437,-5.7441,-5.7444,0,0,0,0,0,0,0,-5.7058,-5.7079,-5.7292,-5.7227,-5.7226,-5.7205,-5.7216,-5.7325,-5.7341,-5.7263,-5.7258,-5.7273,-5.7362,-5.7398,-5.7409,-5.758,-5.7431,-5.7439,-5.7445,-5.7449,-5.7887,-5.7893,0,0,0,0,0,0,-5.7052,-5.7072,-5.7288,-5.7295,-5.7131,-5.7214,-5.7227,-5.7283,-5.734,-5.7343,-5.7277,-5.7268,-5.7385,-5.7398,-5.7413,-5.7611,-5.7441,-5.745,-5.7455,-5.7881,-5.7888,-5.7895,0,0,0,0,0,0,-5.7046,-5.7072,-5.7284,-5.7183,-5.7208,-5.7225,-5.7289,-5.7288,-5.7325,-5.735,-5.7352,-5.7312,-5.7381,-5.7399,-5.753,-5.7614,-5.7454,-5.7463,-5.7874,-5.7883,-5.7892,-5.801,0,0,0,0,0,0,-5.7038,-5.7071,-5.7136,-5.7185,-5.7214,-5.7401,-5.7294,-5.7294,-5.7342,-5.7332,-5.7383,-5.7387,-5.7378,-5.7516,-5.754,-5.7624,-5.747,-5.7867,-5.7878,-5.7889,-5.7999,-5.8022,-5.8042,0,0,0,0,0,-5.7028,-5.7164,-5.714,-5.7166,-5.7296,-5.7406,-5.7422,-5.7411,-5.7349,-5.7414,-5.743,-5.7385,-5.7601,-5.753,-5.7556,-5.7645,-5.7861,-5.7875,-5.7888,-5.7989,-5.8018,-5.8042,0,0,0,0,0,0,-5.7124,-5.717,-5.7144,-5.73,-5.735,-5.7392,-5.7474,-5.7442,-5.7509,-5.7496,-5.7478,-5.749,-5.7627,-5.7649,-5.7569,-5.7809,-5.7721,-5.774,-5.779,-5.7817,-5.7838,-5.7829,-5.7478,0,0,0,0,0,-5.7164,-5.7251,-5.7286,-5.7421,-5.7447,-5.7457,-5.7504,-5.7491,-5.7541,-5.7561,-5.7587,-5.7636,-5.7714,-5.7767,-5.7841,-5.8002,-5.801,-5.8075,-5.8097,-5.8114,-5.8131,-5.8216,-5.8244,-5.7938,-5.7938,-5.7938,0,0,-5.7246,-5.7282,-5.7338,-5.7441,-5.7478,-5.7567,-5.7475,-5.7573,-5.7639,-5.7576,-5.7701,-5.7721,-5.7774,-5.7921,-5.7986,-5.7943,-5.8217,-5.8131,-5.8145,-5.8152,-5.8232,-5.8261,-5.8287,-5.7947,-5.7946,-5.7944,0,0,-5.7442,-5.7479,-5.7594,-5.7633,-5.7691,-5.7696,-5.7724,-5.7771,-5.7782,-5.7908,-5.7862,-5.7938,-5.8075,-5.8114,-5.8152,-5.8361,-5.8321,-5.8385,-5.8498,-5.858,-5.8605,-5.8626,-5.8699,-5.8726,-5.8402,-5.8402,-5.8402,0,-5.7536,-5.7671,-5.7657,-5.7759,-5.7805,-5.7753,-5.7869,-5.7907,-5.7985,-5.8017,-5.7968,-5.8137,-5.8169,-5.8323,-5.8374,-5.8407,-5.8436,-5.8379,-5.8603,-5.8624,-5.8643,-5.8713,-5.8741,-5.8409,-5.8408,-5.8408,-5.8407,0,-5.7783,-5.7877,-5.7963,-5.8042,-5.8097,-5.8205,-5.8206,-5.8263,-5.8245,-5.8254,-5.8381,-5.8418,-5.8498,-5.8533,-5.8516,-5.8684,-5.8656,-5.8605,-5.8517,-5.868,-5.8745,-5.8772,-5.842,-5.8417,-5.8415,-5.8413,0,0,-5.8044,-5.8113,-5.8144,-5.8179,-5.8238,-5.8309,-5.8413,-5.8493,-5.8541,-5.8596,-5.8683,-5.8799,-5.8752,-5.8795,-5.8781,-5.8854,-5.9015,-5.8794,-5.8795,-5.8833,-5.9201,-5.9239,-5.927,-5.899,-5.8995,-5.8999,-5.9196,0,-5.8242,-5.8427,-5.8417,-5.8589,-5.8674,-5.8626,-5.8717,-5.8761,-5.8773,-5.8845,-5.8856,-5.8939,-5.8871,-5.8897,-5.8967,-5.8981,-5.9089,-5.8967,-5.9068,-5.9071,-5.9056,-5.9304,-5.9344,-5.9529,-5.9222,-5.9226,-5.9229,0,-5.8498,-5.8563,-5.8745,-5.879,-5.8825,-5.8907,-5.8978,-5.9048,-5.9097,-5.91,-5.9148,-5.9122,-5.9225,-5.9134,-5.9275,-5.9193,-5.9233,-5.9246,-5.9253,-5.9261,-5.916,-5.9318,-5.9588,-5.9615,-5.9269,-5.9266,-5.9263,0,-5.8668,-5.8801,-5.8926,-5.8957,-5.9013,-5.9072,-5.9097,-5.9141,-5.9189,-5.925,-5.928,-5.9353,-5.9392,-5.9447,-5.944,-5.9375,-5.9583,-5.9492,-5.9587,-5.9587,-5.9633,-5.963,-5.9912,-5.966,-5.966,-5.9659,-5.9659,0,-5.889,-5.9003,-5.9003,-5.9081,-5.9204,-5.9191,-5.9313,-5.9332,-5.9371,-5.9449,-5.9411,-5.9484,-5.9471,-5.9544,-5.9539,-5.9656,-5.9674,-5.9678,-5.9675,-5.9681,-5.968,-5.9707,-5.9693,-5.9667,-5.9665,-5.9663,-5.9662,0,-5.9101,-5.9107,-5.924,-5.9282,-5.9295,-5.9384,-5.9419,-5.9491,-5.9498,-5.9598,-5.962,-5.9632,-5.9715,-5.9714,-5.9809,-5.9806,-5.9948,-5.9931,-5.9933,-5.9929,-6.0023,-6.0014,-6.0331,-6.0371,-6.0095,-6.0097,-6.0099,0,-5.9242,-5.9328,-5.9379,-5.943,-5.9459,-5.9541,-5.959,-5.9579,-5.9631,-5.9692,-5.9756,-5.9836,-5.99,-6.0036,-6.0051,-6.0123,-6.0107,-6.0213,-6.0117,-6.012,-6.0107,-6.0102,-6.011,-6.0232,-6.0235,-6.0237,-6.0239,0,-5.9492,-5.949,-5.9563,-5.9636,-5.9696,-5.9753,-5.9805,-5.9848,-5.9842,-5.9902,-5.9988,-6.0038,-6.0135,-6.0215,-6.0284,-6.0307,-6.0272,-6.0269,-6.0295,-6.0302,-6.0299,-6.03,-5.9983,-6.0262,-6.026,-6.0258,-6.0257,-6.0256,-5.9672,-5.9745,-5.9792,-5.9874,-5.9912,-5.9962,-6.0031,-6.0048,-6.012,-6.0199,-6.0187,-6.0283,-6.0327,-6.0417,-6.0447,-6.0519,-6.0482,-6.0519,-6.0528,-6.0537,-6.0547,-6.0288,-6.0532,-6.0531,-6.0531,-6.053,-6.053,0,-5.9918,-5.9946,-6.0021,-6.0096,-6.016,-6.0123,-6.0178,-6.0233,-6.0319,-6.0364,-6.0428,-6.0525,-6.0602,-6.0623,-6.0697,-6.0751,-6.0736,-6.077,-6.0766,-6.0771,-6.0578,-6.0548,-6.0781,-6.0781,-6.0781,-6.0781,-6.0781,-6.078,-6.0054,-6.0175,-6.0179,-6.0318,-6.0344,-6.0439,-6.0474,-6.0519,-6.0554,-6.0666,-6.073,-6.0744,-6.0779,-6.0854,-6.0922,-6.0926,-6.0954,-6.0995,-6.0992,-6.0811,-6.0785,-6.0761,-6.0733,-6.1001,-6.1002,-6.118,-6.1181,-6.1183]}]]